Location: Stilling
(56.0622°N, 9.9882°E)
Time: 12:06:10
(UTC+00:00)

Meteor 1-27 Rocket - Pass Details

Date: 13 July 2020
Orbit: 830 x 910 km, 81.3° (Epoch: 06 August)

Event Time Altitude Azimuth Distance (km) Brightness Sun altitude
Rises 23:02:59 0° 345° (NNW) 3,417 8.8 -12.1°
Reaches altitude 10° 23:05:24 10° 346° (NNW) 2,487 7.6 -12.2°
Maximum altitude 23:11:04 82° 75° (ENE) 877 3.8 -12.2°
Enters shadow 23:15:47 16° 163° (SSE) 2,139 5.2 -12.3°
